EW6135 Weather Reports


Display with metric or nautical units.
time (UTC)temp
F
wind
direction
speed
MPH
gust
MPH
rain 1hr
in
rain 24hr
in
rain mn
in
humidity
%
barometer
mb
20260503222022 65 323 0.0 4.0 0.00 0.09 0.02 47 1016.4
20260503221527 65 67 1.0 4.0 0.00 0.09 0.02 46 1016.4
20260503221022 65 68 0.0 5.0 0.00 0.09 0.02 47 1016.3
20260503220520 65 68 0.0 5.0 0.00 0.09 0.02 47 1016.3
20260503220019 65 70 2.0 5.0 0.00 0.09 0.02 44 1016.3
20260503215519 66 356 0.0 3.0 0.00 0.12 0.02 42 1016.4
20260503215021 66 229 0.0 3.0 0.00 0.12 0.02 43 1016.3
20260503214519 65 15 1.0 7.0 0.00 0.12 0.02 43 1016.2
20260503214019 65 43 2.0 11.0 0.00 0.12 0.02 44 1016.2
20260503213519 65 20 4.0 11.0 0.00 0.12 0.02 44 1016.2
20260503213022 65 44 3.0 11.0 0.00 0.12 0.02 47 1016.1
20260503212519 66 337 0.0 5.0 0.00 0.12 0.02 42 1016.2
20260503212018 66 16 2.0 6.0 0.00 0.12 0.02 43 1016.2
20260503211518 66 248 1.0 6.0 0.00 0.12 0.02 42 1016.2
20260503211020 65 77 3.0 8.0 0.00 0.12 0.02 44 1016.3
20260503210521 65 77 4.0 8.0 0.00 0.12 0.02 41 1016.3
20260503210018 66 25 1.0 5.0 0.00 0.12 0.02 43 1016.4
20260503205517 66 254 0.0 7.0 0.00 0.15 0.02 44 1016.5
20260503205017 66 283 1.0 7.0 0.00 0.15 0.02 47 1016.5
20260503204520 66 27 2.0 7.0 0.00 0.15 0.02 44 1016.5
20260503204017 66 350 1.0 5.0 0.00 0.15 0.02 45 1016.5
20260503203516 65 38 2.0 11.0 0.00 0.15 0.02 41 1016.4
20260503203017 65 23 3.0 11.0 0.00 0.15 0.02 44 1016.4
20260503202516 65 26 1.0 8.0 0.00 0.15 0.02 44 1016.5
20260503202016 65 130 3.0 9.0 0.00 0.15 0.02 41 1016.5
20260503201516 65 37 3.0 9.0 0.00 0.15 0.02 42 1016.6
20260503201016 66 9 2.0 6.0 0.00 0.15 0.02 43 1016.5
20260503200519 66 7 2.0 6.0 0.00 0.15 0.02 41 1016.5
20260503200014 66 259 2.0 8.0 0.00 0.15 0.02 46 1016.5
20260503195513 66 359 3.0 11.0 0.00 0.25 0.02 43 1016.5
20260503195018 65 186 1.0 11.0 0.00 0.25 0.02 46 1016.5
20260503194513 65 134 3.0 10.0 0.00 0.25 0.02 45 1016.6
20260503194014 65 242 3.0 10.0 0.00 0.25 0.02 44 1016.7
20260503193516 65 240 2.0 10.0 0.00 0.25 0.02 43 1016.7
20260503193012 66 43 1.0 6.0 0.00 0.25 0.02 46 1016.7
20260503192511 65 243 1.0 9.0 0.00 0.25 0.02 47 1016.8
20260503192014 65 237 2.0 9.0 0.00 0.25 0.02 44 1017.0
20260503191510 65 342 2.0 7.0 0.00 0.25 0.02 44 1017.1
20260503191009 64 253 3.0 8.0 0.00 0.25 0.02 44 1017.3
20260503190510 65 238 2.0 8.0 0.00 0.25 0.02 44 1017.3
20260503190010 64 256 3.0 9.0 0.00 0.25 0.02 47 1017.3
20260503185509 64 347 4.0 9.0 0.00 0.30 0.02 45 1017.3
20260503185009 65 39 0.0 7.0 0.00 0.30 0.02 47 1017.4
20260503184514 65 264 2.0 9.0 0.00 0.30 0.02 47 1017.5
20260503184009 64 236 2.0 9.0 0.00 0.30 0.02 46 1017.4
20260503183506 63 64 2.0 9.0 0.00 0.30 0.02 49 1017.5
20260503183006 64 60 1.0 11.0 0.00 0.30 0.02 48 1017.6
20260503182507 63 47 5.0 11.0 0.00 0.30 0.02 44 1017.6
20260503182006 63 25 3.0 11.0 0.00 0.30 0.02 48 1017.6
20260503181506 63 293 4.0 11.0 0.00 0.30 0.02 47 1017.6
20260503181005 64 349 2.0 12.0 0.00 0.30 0.02 46 1017.7
20260503180505 64 274 2.0 12.0 0.00 0.30 0.02 45 1017.7
20260503180005 63 113 3.0 12.0 0.00 0.36 0.02 46 1017.7
20260503175504 63 77 3.0 11.0 0.00 0.36 0.02 45 1017.7
20260503175003 63 316 2.0 11.0 0.00 0.36 0.02 49 1017.7
20260503174503 63 238 5.0 12.0 0.00 0.36 0.02 46 1017.7
20260503174002 63 346 4.0 11.0 0.00 0.36 0.02 44 1017.9
20260503173502 63 283 3.0 13.0 0.00 0.36 0.02 48 1017.8
20260503173001 63 22 6.0 13.0 0.00 0.36 0.02 45 1017.8
20260503172500 63 232 3.0 9.0 0.00 0.36 0.02 52 1017.8
20260503172059 63 342 1.0 11.0 0.00 0.36 0.02 51 1017.9
20260503171600 62 231 3.0 11.0 0.00 0.36 0.02 48 1017.9
20260503171058 61 355 5.0 10.0 0.00 0.36 0.02 53 1017.9
20260503131030 53 56 1.0 14.0 0.01 0.44 0.02 80 1017.5
20260503081553 46 261 0.0 2.0 0.00 0.48 0.00 98 1014.4
20260503081053 46 261 0.0 2.0 0.00 0.48 0.00 98 1014.4
20260503072551 47 261 0.0 1.0 0.00 0.49 0.00 98 1014.0
20260503072048 47 261 0.0 1.0 0.00 0.49 0.00 98 1014.0
20260503071604 47 261 0.0 1.0 0.00 0.49 0.00 98 1013.9
20260503071046 47 261 0.0 1.0 0.00 0.49 0.00 97 1013.9
20260503055034 50 233 0.0 2.0 0.00 0.49 0.00 97 1012.8
20260503054548 50 331 0.0 2.0 0.00 0.49 0.00 97 1012.8
20260503054033 51 335 0.0 3.0 0.00 0.49 0.00 97 1012.8
20260503053533 51 230 0.0 3.0 0.00 0.49 0.00 97 1012.8
20260503053034 51 334 0.0 3.0 0.00 0.49 0.00 97 1012.8
20260503052536 51 27 0.0 3.0 0.00 0.49 0.00 97 1012.8
20260503052032 51 260 0.0 2.0 0.00 0.49 0.00 97 1012.9
20260503051535 51 260 0.0 2.0 0.00 0.49 0.00 98 1012.8
20260503051032 51 48 0.0 2.0 0.00 0.49 0.00 98 1012.8
20260503050038 51 94 0.0 2.0 0.00 0.49 0.00 98 1013.0
20260503045534 51 114 0.0 0.0 0.00 0.49 0.00 98 1012.9
20260503045032 51 114 0.0 0.0 0.00 0.49 0.00 98 1012.9
20260503044532 51 114 0.0 2.0 0.00 0.49 0.00 98 1012.9
20260503044030 51 114 0.0 2.0 0.00 0.49 0.00 98 1012.8
20260503043533 51 189 0.0 2.0 0.00 0.49 0.00 98 1012.8
20260503043030 51 77 0.0 1.0 0.00 0.49 0.00 98 1012.6
20260503042528 51 76 0.0 1.0 0.00 0.49 0.00 98 1012.4
20260503042028 51 77 0.0 1.0 0.00 0.49 0.00 98 1012.5
20260503041535 51 77 0.0 1.0 0.00 0.49 0.00 98 1012.4
20260503041029 51 310 0.0 1.0 0.00 0.49 0.00 98 1012.3
20260503040026 51 51 0.0 1.0 0.00 0.49 0.00 97 1012.3
20260503035526 51 51 0.0 2.0 0.00 0.49 0.49 98 1012.3
20260503035026 51 339 0.0 3.0 0.00 0.49 0.49 98 1012.3
20260503034526 51 72 0.0 3.0 0.00 0.49 0.49 98 1012.2
20260503034025 51 246 0.0 4.0 0.00 0.49 0.49 98 1012.4
20260503033525 51 1 0.0 4.0 0.00 0.49 0.49 98 1012.5
20260503033025 51 345 0.0 4.0 0.00 0.49 0.49 98 1012.5
20260503032527 51 343 0.0 3.0 0.00 0.49 0.49 98 1012.3
20260503032024 51 238 0.0 3.0 0.00 0.49 0.49 98 1012.5
20260503031525 51 41 0.0 2.0 0.00 0.49 0.49 98 1012.3
20260503031025 51 86 0.0 3.0 0.00 0.49 0.49 98 1012.3
20260503030027 51 328 0.0 4.0 0.00 0.49 0.49 98 1012.1
20260503025524 51 39 0.0 5.0 0.00 0.49 0.49 98 1012.2
20260503025024 51 76 0.0 4.0 0.00 0.49 0.49 98 1012.2
20260503024524 51 207 0.0 4.0 0.00 0.49 0.49 98 1012.4
20260503024026 51 23 0.0 3.0 0.00 0.49 0.49 98 1012.3
20260503023523 51 107 0.0 3.0 0.00 0.49 0.49 98 1012.2
20260503023023 51 210 0.0 2.0 0.00 0.49 0.49 98 1012.3
20260503022523 51 211 0.0 2.0 0.00 0.49 0.49 98 1012.2
20260503022022 51 20 0.0 4.0 0.00 0.49 0.49 98 1012.1
20260503021524 51 20 0.0 4.0 0.00 0.49 0.49 98 1012.0
20260503021022 51 52 0.0 3.0 0.00 0.49 0.49 98 1012.0
20260503020023 51 350 0.0 1.0 0.00 0.49 0.49 98 1012.0
20260503015524 51 350 0.0 1.0 0.00 0.49 0.49 98 1011.9
20260503015024 51 48 0.0 4.0 0.00 0.49 0.49 98 1011.8
20260503014520 51 350 1.0 4.0 0.00 0.49 0.49 98 1011.8
20260503014020 51 45 0.0 2.0 0.00 0.49 0.49 98 1011.9
20260503013520 51 45 0.0 3.0 0.00 0.49 0.49 98 1011.9
20260503013019 51 20 0.0 3.0 0.00 0.49 0.49 98 1011.9
20260503012519 51 26 0.0 4.0 0.00 0.49 0.49 98 1011.9
20260503012019 51 357 0.0 3.0 0.00 0.49 0.49 98 1011.8
20260503011518 51 41 0.0 3.0 0.00 0.49 0.49 98 1011.9
20260503011019 51 33 0.0 5.0 0.01 0.49 0.49 98 1011.7
20260503010022 52 353 1.0 5.0 0.01 0.49 0.49 98 1011.7
20260503005518 52 58 0.0 3.0 0.01 0.49 0.49 98 1011.6
20260503005019 52 43 0.0 6.0 0.01 0.49 0.49 98 1011.6
20260503004518 52 328 0.0 6.0 0.01 0.49 0.49 98 1011.5
20260503004017 52 37 2.0 6.0 0.01 0.49 0.49 98 1011.5
20260503003517 52 181 1.0 6.0 0.01 0.49 0.49 98 1011.4
20260503003017 52 68 1.0 8.0 0.01 0.49 0.49 98 1011.3
20260503002517 52 340 0.0 4.0 0.01 0.49 0.49 98 1011.1
20260503002018 52 24 1.0 4.0 0.01 0.49 0.49 98 1010.9
20260503001516 52 20 1.0 5.0 0.02 0.49 0.49 98 1010.9
20260503001017 52 43 0.0 5.0 0.03 0.49 0.49 98 1011.0
20260503000015 52 290 0.0 4.0 0.02 0.48 0.48 98 1010.9
20260502235515 52 300 0.0 5.0 0.02 0.48 0.48 97 1010.7
20260502235015 52 317 1.0 5.0 0.03 0.48 0.48 97 1010.8
20260502234615 52 341 1.0 4.0 0.03 0.48 0.48 97 1010.8
20260502234019 52 319 0.0 3.0 0.03 0.48 0.48 97 1010.8
20260502233518 52 217 0.0 7.0 0.04 0.48 0.48 97 1010.6
20260502233015 52 354 2.0 7.0 0.05 0.48 0.48 97 1010.5
20260502232517 52 53 3.0 9.0 0.06 0.48 0.48 97 1010.4
20260502232013 52 358 2.0 13.0 0.06 0.48 0.48 97 1010.0
20260502231513 52 27 3.0 13.0 0.05 0.47 0.47 97 1010.2
20260502231012 53 345 1.0 6.0 0.05 0.47 0.47 97 1010.3
20260502230020 53 91 0.0 7.0 0.04 0.46 0.46 97 1010.4
20260502225512 53 342 4.0 7.0 0.05 0.46 0.46 97 1010.2
20260502225016 53 11 4.0 7.0 0.05 0.46 0.46 97 1010.3
20260502224509 54 58 2.0 7.0 0.05 0.45 0.45 97 1010.2
20260502224009 54 58 0.0 6.0 0.05 0.45 0.45 97 1010.2
20260502223508 54 359 0.0 6.0 0.04 0.44 0.44 97 1010.2
20260502223009 54 346 2.0 12.0 0.03 0.43 0.43 97 1010.4
20260502222508 54 17 3.0 12.0 0.04 0.43 0.43 97 1010.3